Flag for Canada Weather past 2 weeks in Drummondville, Quebec, Canada

Now
59 °F

Cool.


Feels Like: 59 °F
Forecast: 62 / 82 °F
Wind: 1 mph from Southeast

Location: Nicolet

Current Time: May 30, 2015 at 5:28:57 AM

Latest Report: May 30, 2015 at 5:00 AM


Visibility: N/A

Pressure: 29.96 "Hg

Humidity: 91%

Dew point: 56 °F

Location of DrummondvilleLocation

Historic Weather in Drummondville — Graph

°F

Drummondville temperature yesterday

Maximum temperature yesterday: 71 °F (at 6:00 PM)
Minimum temperature yesterday: 49 °F (at 5:00 AM)
Average temperature yesterday: 61 °F

Past Weeks' High & Low Weather Summary

 TemperatureHumidityPressure
High80 °F (May 27, 6:00 PM)100% (May 18, 11:00 PM)30.33 "Hg (May 18, 11:00 PM)
Low38 °F (May 23, 6:00 AM)30% (May 20, 5:00 PM)29.54 "Hg (May 19, 6:00 PM)
Average60 °F69%29.99 "Hg
* Reported May 15 4:00 AM — May 30 4:00 AM, Drummondville, Weather by CustomWeather, © 2015

Note: Actual official high and low records may vary slightly from our data, if they occured in-between our weather recording intervals... More about our weather records

Advertising

Drummondville weather history for previous 24 hours

 ConditionsComfort  
Time TempWeatherWind HumidityBarometerVisibility
4:00 AM
Sat, May 30
59 °FCool.1 mph90%29.98 "HgN/A
3:00 AM57 °FCool.1 mph85%30.00 "HgN/A
2:00 AM61 °FCool.2 mph82%30.02 "HgN/A
1:00 AM62 °FCool.3 mph78%30.04 "HgN/A
12:00 AM62 °FCool.2 mph81%30.06 "HgN/A
11:00 PM
Fri, May 29
60 °FCool.1 mph87%30.08 "HgN/A
10:00 PM63 °FMild.2 mph81%30.09 "HgN/A
9:00 PM67 °FMild.3 mph69%30.10 "HgN/A
8:00 PM68 °FMild.2 mph75%30.11 "HgN/A
7:00 PM70 °FMild.1 mph72%30.12 "HgN/A
6:00 PM71 °FMild.1 mph60%30.15 "HgN/A
5:00 PM71 °FMild.2 mph62%30.18 "HgN/A
4:00 PM71 °FMild.5 mph59%30.20 "HgN/A
3:00 PM70 °FMild.5 mph60%30.22 "HgN/A
2:00 PM69 °FMild.5 mph65%30.24 "HgN/A
1:00 PM66 °FMild.7 mph72%30.26 "HgN/A
12:00 PM65 °FMild.6 mph70%30.27 "HgN/A
11:00 AM64 °FMild.5 mph68%30.29 "HgN/A
10:00 AM62 °FCool.5 mph77%30.31 "HgN/A
9:00 AM59 °FCool.3 mph72%30.32 "HgN/A
8:00 AM57 °FCool.2 mph81%30.32 "HgN/A
7:00 AM54 °FCool.3 mph87%30.33 "HgN/A
6:00 AM50 °FCool.3 mph99%30.30 "HgN/A
5:00 AM49 °FCool.1 mph99%30.28 "HgN/A
Weather by CustomWeather, © 2015

See weather overviewHow to use our weather pages